Location: Campo Alegre
(10.4289°N, 66.6519°W)
Time: 01:24:35
(UTC+00:00)

ACS3 Solar Sail - Visible Passes

Search period start: 14 July 2024 00:00
Search period end: 24 July 2024 00:00
Orbit: 992 x 1023 km, 97.4° (Epoch: 13 July)

Date Brightness Start Highest point End Pass type
(mag) Time Alt. Az. Time Alt. Az. Time Alt. Az.
14 Jul 7.0 02:25:13 19° NNW 02:25:13 19° NNW 02:26:54 10° NNW visible
15 Jul 6.7 01:14:41 17° NNE 01:14:41 17° NNE 01:16:26 10° NNE visible
15 Jul 7.6 03:00:02 11° NW 03:00:02 11° NW 03:00:13 10° NW visible
16 Jul 6.6 01:49:31 23° N 01:49:31 23° N 01:51:42 10° N visible
17 Jul 7.0 02:24:20 19° NNW 02:24:20 19° NNW 02:26:01 10° NNW visible
18 Jul 6.6 01:13:49 18° NNE 01:13:49 18° NNE 01:15:38 10° NNE visible
18 Jul 7.6 02:59:09 10° NW 02:59:09 10° NW 02:59:15 10° NW visible
19 Jul 6.6 01:48:38 23° N 01:48:38 23° N 01:50:51 10° N visible
20 Jul 7.0 02:23:28 19° NNW 02:23:28 19° NNW 02:25:07 10° NNW visible
21 Jul 6.6 01:12:56 18° NNE 01:12:56 18° NNE 01:14:50 10° NNE visible
21 Jul 7.6 02:58:17 10° NW 02:58:17 10° NW 02:58:18 10° NW visible
22 Jul 6.6 01:47:46 24° N 01:47:46 24° N 01:50:00 10° N visible
23 Jul 7.0 02:22:36 19° NNW 02:22:36 19° NNW 02:24:13 10° NNW visible
